This demonstration page uses our WeatherBlox Daily Observations layout. Learn more.

Left ArrowRight Arrow

39.29038, -76.61219

Hourly Observations for February 19, 2017

Temp ( °F °C ) Dew Point ( °F °C ) Humidity (%) Winds ( mph kmh ) Pressure ( in mb ) Visibility ( mi km ) Precip ( " mm )
12:54 am 00:54 undefined 62 16.7 30 -1.1 30 30 undefined N/A 29.78 1008 N/A 0.00 0.00
1:54 am 01:54 undefined 62 16.7 31 -0.6 31 31 undefined N/A 29.78 1009 N/A 0.00 0.00
2:54 am 02:54 undefined 63 17.2 33 0.6 33 33 undefined N/A 29.78 1009 N/A 0.00 0.00
3:54 am 03:54 undefined 63 17.2 34 1.1 34 34 undefined N/A 29.79 1009 N/A 0.00 0.00
4:54 am 04:54 undefined 63 17.2 37 2.8 38 38 undefined N/A 29.80 1009 N/A 0.00 0.00
5:54 am 05:54 undefined 63 17.2 39 3.9 41 41 undefined N/A 29.82 1010 N/A 0.00 0.00
6:54 am 06:54 undefined 62 16.7 39 3.9 43 43 undefined N/A 29.83 1010 N/A 0.00 0.00
7:54 am 07:54 undefined 61 16.1 40 4.4 46 46 undefined N/A 29.86 1011 N/A 0.00 0.00
8:54 am 08:54 undefined 62 16.7 40 4.4 44 44 undefined N/A 29.88 1012 N/A 0.00 0.00
9:54 am 09:54 undefined 62 16.7 41 5 46 46 undefined N/A 29.89 1012 N/A 0.00 0.00
10:54 am 10:54 undefined 65 18.3 41 5 42 42 undefined N/A 29.90 1012 N/A 0.00 0.00
11:54 am 11:54 undefined 67 19.4 40 4.4 37 37 undefined N/A 29.90 1012 N/A 0.00 0.00
12:54 pm 12:54 undefined 69 20.6 41 5 36 36 undefined N/A 29.88 1012 N/A 0.00 0.00
1:54 pm 13:54 undefined 70 21.1 40 4.4 34 34 undefined N/A 29.88 1012 N/A 0.00 0.00
2:54 pm 14:54 undefined 70 21.1 38 3.3 31 31 undefined N/A 29.88 1012 N/A 0.00 0.00
3:54 pm 15:54 undefined 70 21.1 37 2.8 30 30 undefined N/A 29.90 1013 N/A 0.00 0.00
4:54 pm 16:54 undefined 69 20.6 37 2.8 31 31 undefined N/A 29.91 1013 N/A 0.00 0.00
5:54 pm 17:54 undefined 67 19.4 38 3.3 35 35 undefined N/A 29.93 1014 N/A 0.00 0.00
6:54 pm 18:54 undefined 65 18.3 39 3.9 39 39 undefined N/A 29.95 1014 N/A 0.00 0.00
7:54 pm 19:54 undefined 63 17.2 39 3.9 41 41 undefined N/A 29.97 1015 N/A 0.00 0.00
8:54 pm 20:54 undefined 61 16.1 39 3.9 44 44 undefined N/A 29.99 1016 N/A 0.00 0.00
9:54 pm 21:54 undefined 61 16.1 38 3.3 43 43 undefined N/A 30.01 1016 N/A 0.00 0.00
10:54 pm 22:54 undefined 58 14.4 38 3.3 48 48 undefined N/A 30.02 1017 N/A 0.00 0.00
11:54 pm 23:54 undefined 55 12.8 38 3.3 53 53 undefined N/A 30.03 1017 N/A 0.00 0.00

Powered by AerisWeather